EW7762 Weather Reports


Display with metric or nautical units.
time (UTC)temp
F
wind
direction
speed
MPH
gust
MPH
rain 1hr
in
rain 24hr
in
rain mn
in
humidity
%
barometer
mb
20260906211428 90 73 2.0 3.0 0.00 0.00 0.00 41 1015.0
20260906210929 90 73 2.0 4.0 0.00 0.00 0.00 41 1014.9
20260906210428 90 73 2.0 4.0 0.00 0.00 0.00 41 1015.1
20260906205427 89 152 0.0 1.0 0.00 0.00 0.00 40 1015.2
20260906204926 89 152 0.0 1.0 0.00 0.00 0.00 40 1015.4
20260906203916 0 0.0 0.0 0.00 0.00 0.00 1015.6
20260906203342 0 0.0 0.0 0.00 0.00 0.00 1015.3
20260906202831 0 0.0 0.0 0.00 0.00 0.00 1015.4
20260906202318 87 31 2.0 2.0 0.00 0.00 0.00 47 1015.3
20260906201812 87 31 2.0 2.0 0.00 0.00 0.00 47 1015.7
20260906201308 87 31 2.0 6.0 0.00 0.00 0.00 47 1015.6
20260906200756 87 31 2.0 6.0 0.00 0.00 0.00 47 1015.9
20260906200249 87 57 6.0 6.0 0.00 0.00 0.00 46 1015.9
20260906195748 87 57 6.0 6.0 0.00 0.00 0.00 46 1016.0
20260906195248 87 141 2.0 5.0 0.00 0.00 0.00 47 1016.1
20260906194745 87 141 2.0 9.0 0.00 0.00 0.00 47 1015.6
20260906194244 86 72 2.0 9.0 0.00 0.00 0.00 49 1015.8
20260906193744 86 32 3.0 11.0 0.00 0.00 0.00 47 1015.9
20260906193243 86 71 3.0 11.0 0.00 0.00 0.00 46 1015.9
20260906192744 85 71 2.0 7.0 0.00 0.00 0.00 50 1015.9
20260906192244 85 212 0.0 7.0 0.00 0.00 0.00 48 1016.1
20260906191743 85 88 1.0 6.0 0.00 0.00 0.00 51 1016.3
20260906191243 85 122 4.0 6.0 0.00 0.00 0.00 50 1016.3
20260906190744 85 103 2.0 6.0 0.00 0.00 0.00 48 1016.3
20260906190244 85 107 3.0 8.0 0.00 0.00 0.00 49 1016.6
20260906185243 84 171 3.0 6.0 0.00 0.00 0.00 51 1017.0
20260906183744 83 137 4.0 8.0 0.00 0.00 0.00 49 1017.5
20260906183244 83 25 2.0 8.0 0.00 0.00 0.00 51 1017.3
20260906182743 83 62 3.0 7.0 0.00 0.00 0.00 49 1017.6
20260906181743 83 129 2.0 8.0 0.00 0.00 0.00 52 1017.8
20260906181243 82 348 1.0 8.0 0.00 0.00 0.00 59 1017.6
20260906180745 82 52 4.0 8.0 0.00 0.00 0.00 52 1017.5
20260906180245 82 349 2.0 6.0 0.00 0.00 0.00 53 1018.0
20260906175745 81 4 2.0 8.0 0.00 0.00 0.00 58 1018.1
20260906175244 81 19 5.0 8.0 0.00 0.00 0.00 55 1017.8
20260906174745 82 36 4.0 6.0 0.00 0.00 0.00 55 1018.1
20260906174244 81 312 4.0 5.0 0.00 0.00 0.00 56 1018.2
20260906173745 81 41 3.0 4.0 0.00 0.00 0.00 55 1018.3
20260906172750 80 37 5.0 6.0 0.00 0.00 0.00 56 1018.6
20260906172245 80 122 2.0 5.0 0.00 0.00 0.00 58 1018.6
20260906171745 80 8 2.0 4.0 0.00 0.00 0.00 58 1018.8
20260906171245 79 341 1.0 4.0 0.00 0.00 0.00 58 1018.9
20260906170745 79 165 0.0 3.0 0.00 0.00 0.00 56 1018.7
20260906170245 79 134 0.0 4.0 0.00 0.00 0.00 59 1018.8
20260906165745 78 74 4.0 4.0 0.00 0.00 0.00 59 1018.8
20260906164744 77 97 2.0 6.0 0.00 0.00 0.00 62 1018.9
20260906164245 77 12 2.0 8.0 0.00 0.00 0.00 61 1018.8
20260906162745 75 52 4.0 8.0 0.00 0.00 0.00 61 1018.8
20260906161745 76 346 2.0 6.0 0.00 0.00 0.00 60 1018.9
20260906161244 76 352 1.0 5.0 0.00 0.00 0.00 63 1019.1
20260906160245 74 50 4.0 7.0 0.00 0.00 0.00 64 1018.9
20260906155245 73 324 2.0 6.0 0.00 0.00 0.00 66 1019.1
20260906154745 73 350 3.0 7.0 0.00 0.00 0.00 64 1018.8
20260906154245 74 41 4.0 7.0 0.00 0.00 0.00 62 1019.1
20260906153745 73 349 2.0 7.0 0.00 0.00 0.00 65 1019.0
20260906153243 73 9 4.0 4.0 0.00 0.00 0.00 65 1019.1
20260906152743 72 0 1.0 3.0 0.00 0.00 0.00 64 1019.4
20260906152243 72 338 3.0 5.0 0.00 0.00 0.00 67 1019.1
20260906151744 72 332 0.0 5.0 0.00 0.00 0.00 66 1019.3
20260906151245 70 12 4.0 7.0 0.00 0.00 0.00 68 1019.1
20260906150744 70 12 4.0 7.0 0.00 0.00 0.00 68 1019.4
20260906150244 71 319 2.0 4.0 0.00 0.00 0.00 67 1019.4
20260906145745 71 0 2.0 4.0 0.00 0.00 0.00 69 1019.6
20260906145245 71 353 2.0 3.0 0.00 0.00 0.00 67 1019.7
20260906144244 69 8 3.0 4.0 0.00 0.00 0.00 69 1019.4
20260906142244 67 24 3.0 4.0 0.00 0.00 0.00 71 1019.1
20260906141743 67 17 3.0 5.0 0.00 0.00 0.00 72 1019.3
20260906140744 0 0.0 0.0 0.00 0.00 0.00 1019.4
20260906140245 0 0.0 0.0 0.00 0.00 0.00 1019.4
20260906135744 0 0.0 0.0 0.00 0.00 0.00 1019.0
20260906135244 0 0.0 0.0 0.00 0.00 0.00 1019.3
20260906133731 0 0.0 0.0 0.00 0.00 0.00 1019.0
20260906133231 0 0.0 0.0 0.00 0.00 0.00 1019.1
20260906132731 0 0.0 0.0 0.00 0.00 0.00 1018.8
20260906132232 0 0.0 0.0 0.00 0.00 0.00 1018.9
20260906131732 0 0.0 0.0 0.00 0.00 0.00 1019.0
20260906130232 0 0.0 0.0 0.00 0.00 0.00 1019.0
20260906125732 0 0.0 0.0 0.00 0.00 0.00 1019.0
20260906125233 0 0.0 0.0 0.00 0.00 0.00 1018.8
20260906124733 0 0.0 0.0 0.00 0.00 0.00 1018.7
20260906123732 0 0.0 0.0 0.00 0.00 0.00 1018.8
20260906123232 0 0.0 0.0 0.00 0.00 0.00 1018.9
20260906122732 0 0.0 0.0 0.00 0.00 0.00 1018.8
20260906122232 0 0.0 0.0 0.00 0.00 0.00 1018.8
20260906121232 0 0.0 0.0 0.00 0.00 0.00 1018.8
20260906120732 0 0.0 0.0 0.00 0.00 0.00 1018.9
20260906120232 0 0.0 0.0 0.00 0.00 0.00 1018.7
20260906115733 0 0.0 0.0 0.00 0.00 0.00 1018.8
20260906115156 0 0.0 0.0 0.00 0.00 0.00 1018.7
20260906114644 0 0.0 0.0 0.00 0.00 0.00 1018.5
20260906114144 0 0.0 0.0 0.00 0.00 0.00 1018.8
20260906113644 0 0.0 0.0 0.00 0.00 0.00 1018.7
20260906113146 0 0.0 0.0 0.00 0.00 0.00 1018.7
20260906112643 0 0.0 0.0 0.00 0.00 0.00 1018.6
20260906111644 0 0.0 0.0 0.00 0.00 0.00 1018.7
20260906111143 0 0.0 0.0 0.00 0.00 0.00 1018.5
20260906110644 0 0.0 0.0 0.00 0.00 0.00 1018.6
20260906110131 0 0.0 0.0 0.00 0.00 0.00 1018.2
20260906105631 0 0.0 0.0 0.00 0.00 0.00 1018.1
20260906105131 0 0.0 0.0 0.00 0.00 0.00 1018.6
20260906104632 0 0.0 0.0 0.00 0.00 0.00 1018.3
20260906104131 0 0.0 0.0 0.00 0.00 0.00 1018.5
20260906103630 0 0.0 0.0 0.00 0.00 0.00 1018.3
20260906101631 0 0.0 0.0 0.00 0.00 0.00 1018.5
20260906100630 0 0.0 0.0 0.00 0.00 0.00 1018.6
20260906100130 0 0.0 0.0 0.00 0.00 0.00 1018.7
20260906095631 0 0.0 0.0 0.00 0.00 0.00 1018.6
20260906094631 0 0.0 0.0 0.00 0.00 0.00 1018.1
20260906094132 0 0.0 0.0 0.00 0.00 0.00 1018.2
20260906093632 0 0.0 0.0 0.00 0.00 0.00 1018.3
20260906093132 0 0.0 0.0 0.00 0.00 0.00 1018.1
20260906092632 0 0.0 0.0 0.00 0.00 0.00 1018.0
20260906091632 0 0.0 0.0 0.00 0.00 0.00 1017.8
20260906091132 0 0.0 0.0 0.00 0.00 0.00 1018.1
20260906090632 0 0.0 0.0 0.00 0.00 0.00 1017.8
20260906090131 0 0.0 0.0 0.00 0.00 0.00 1017.8
20260906085631 0 0.0 0.0 0.00 0.00 0.00 1017.6
20260906085118 0 0.0 0.0 0.00 0.00 0.00 1017.8
20260906084543 0 0.0 0.0 0.00 0.00 0.00 1017.8
20260906084030 0 0.0 0.0 0.00 0.00 0.00 1017.6
20260906083517 0 0.0 0.0 0.00 0.00 0.00 1017.9
20260906082943 0 0.0 0.0 0.00 0.00 0.00 1017.9
20260906082439 0 0.0 0.0 0.00 0.00 0.00 1018.0
20260906081931 0 0.0 0.0 0.00 0.00 0.00 1018.0
20260906081429 0 0.0 0.0 0.00 0.00 0.00 1017.8
20260906080932 0 0.0 0.0 0.00 0.00 0.00 1017.9
20260906080429 0 0.0 0.0 0.00 0.00 0.00 1017.9
20260906075928 0 0.0 0.0 0.00 0.00 0.00 1017.9
20260906075425 0 0.0 0.0 0.00 0.00 0.00 1018.0
20260906074929 0 0.0 0.0 0.00 0.00 0.00 1017.8
20260906074425 0 0.0 0.0 0.00 0.00 0.00 1017.8
20260906073927 0 0.0 0.0 0.00 0.00 0.00 1018.1
20260906073426 0 0.0 0.0 0.00 0.00 0.00 1017.8
20260906072925 0 0.0 0.0 0.00 0.00 0.00 1018.0
20260906072425 0 0.0 0.0 0.00 0.00 0.00 1017.9
20260906071925 0 0.0 0.0 0.00 0.00 0.00 1018.2
20260906070924 0 0.0 0.0 0.00 0.00 0.00 1018.1
20260906070421 0 0.0 0.0 0.00 0.00 0.00 1017.9
20260906065421 0 0.0 0.0 0.00 0.00 0.00 1018.1
20260906064922 0 0.0 0.0 0.00 0.00 0.00 1018.0
20260906064421 0 0.0 0.0 0.00 0.00 0.00 1018.0
20260906063922 0 0.0 0.0 0.00 0.00 0.00 1018.1
20260906063420 0 0.0 0.0 0.00 0.00 0.00 1017.9
20260906062921 0 0.0 0.0 0.00 0.00 0.00 1018.1
20260906062355 0 0.0 0.0 0.00 0.00 0.00 1018.3
20260906061851 0 0.0 0.0 0.00 0.00 0.00 1018.2
20260906061328 0 0.0 0.0 0.00 0.00 0.00 1018.0
20260906060828 0 0.0 0.0 0.00 0.00 0.00 1017.9
20260906060328 0 0.0 0.0 0.00 0.00 0.00 1017.5
20260906055826 0 0.0 0.0 0.00 0.00 0.00 1017.4
20260906055325 0 0.0 0.0 0.00 0.00 0.00 1017.8
20260906054826 0 0.0 0.0 0.00 0.00 0.00 1017.5
20260906054326 0 0.0 0.0 0.00 0.00 0.00 1017.9
20260906053804 0 0.0 0.0 0.00 0.00 0.00 1017.8
20260906053253 0 0.0 0.0 0.00 0.00 0.00 1017.8
20260906052752 0 0.0 0.0 0.00 0.00 0.00 1017.8
20260906052252 0 0.0 0.0 0.00 0.00 0.00 1017.8
20260906051751 0 0.0 0.0 0.00 0.00 0.00 1017.5
20260906051237 0 0.0 0.0 0.00 0.00 0.00 1017.4
20260906050738 0 0.0 0.0 0.00 0.00 0.00 1017.3
20260906045238 0 0.0 0.0 0.00 0.00 0.00 1017.4
20260906044726 0 0.0 0.0 0.00 0.00 0.00 1017.1
20260906044226 0 0.0 0.0 0.00 0.00 0.00 1017.2
20260906043724 0 0.0 0.0 0.00 0.00 0.00 1017.1
20260906043224 0 0.0 0.0 0.00 0.00 0.00 1017.0
20260906042725 0 0.0 0.0 0.00 0.00 0.00 1017.0
20260906042224 0 0.0 0.0 0.00 0.00 0.00 1017.0
20260906041725 0 0.0 0.0 0.00 0.00 0.00 1017.0
20260906041223 0 0.0 0.0 0.00 0.00 0.00 1016.8
20260906040722 0 0.0 0.0 0.00 0.00 0.00 1016.7
20260906040221 0 0.0 0.0 0.00 0.00 0.00 1016.6
20260906035722 0 0.0 0.0 0.00 0.00 0.00 1016.8
20260906035222 73 19 3.0 3.0 0.00 0.00 0.00 46 1016.7
20260906034719 73 19 3.0 3.0 0.00 0.00 0.00 46 1017.0
20260906034222 73 19 3.0 3.0 0.00 0.00 0.00 46 1016.8
20260906033719 73 19 3.0 3.0 0.00 0.00 0.00 46 1016.6
20260906033219 0 0.0 0.0 0.00 0.00 0.00 1016.6
20260906032655 0 0.0 0.0 0.00 0.00 0.00 1016.4
20260906032142 0 0.0 0.0 0.00 0.00 0.00 1016.4
20260906031104 0 0.0 0.0 0.00 0.00 0.00 1016.5
20260906030605 0 0.0 0.0 0.00 0.00 0.00 1016.3
20260906030105 0 0.0 0.0 0.00 0.00 0.00 1016.4
20260906025548 0 0.0 0.0 0.00 0.00 0.00 1016.1
20260906025047 0 0.0 0.0 0.00 0.00 0.00 1016.7
20260906024536 0 0.0 0.0 0.00 0.00 0.00 1016.4
20260906024035 0 0.0 0.0 0.00 0.00 0.00 1016.4
20260906023536 0 0.0 0.0 0.00 0.00 0.00 1016.1
20260906023037 0 0.0 0.0 0.00 0.00 0.00 1016.4
20260906022536 0 0.0 0.0 0.00 0.00 0.00 1015.9
20260906022037 0 0.0 0.0 0.00 0.00 0.00 1016.4
20260906021537 0 0.0 0.0 0.00 0.00 0.00 1016.1
20260906021035 0 0.0 0.0 0.00 0.00 0.00 1015.9
20260906020524 0 0.0 0.0 0.00 0.00 0.00 1015.9
20260906020023 0 0.0 0.0 0.00 0.00 0.00 1016.0
20260906015523 0 0.0 0.0 0.00 0.00 0.00 1015.8
20260906015023 0 0.0 0.0 0.00 0.00 0.00 1015.8
20260906014522 0 0.0 0.0 0.00 0.00 0.00 1015.8
20260906014024 0 0.0 0.0 0.00 0.00 0.00 1015.7
20260906013522 0 0.0 0.0 0.00 0.00 0.00 1015.6
20260906013024 0 0.0 0.0 0.00 0.00 0.00 1015.8
20260906012522 0 0.0 0.0 0.00 0.00 0.00 1015.4
20260906012022 0 0.0 0.0 0.00 0.00 0.00 1015.7
20260906011518 0 0.0 0.0 0.00 0.00 0.00 1015.7
20260906010841 0 0.0 0.0 0.00 0.00 0.00 1015.7
20260906010341 0 0.0 0.0 0.00 0.00 0.00 1015.6
20260906005840 0 0.0 0.0 0.00 0.00 0.00 1015.6
20260906005340 0 0.0 0.0 0.00 0.00 0.00 1015.7
20260906004840 85 312 8.0 11.0 0.00 0.00 0.00 32 1015.4
20260906003841 85 312 8.0 11.0 0.00 0.00 0.00 32 1015.6
20260906003340 85 312 8.0 11.0 0.00 0.00 0.00 32 1015.6
20260906002839 88 290 10.0 11.0 0.00 0.00 0.00 31 1015.4
20260906002339 0 0.0 0.0 0.00 0.00 0.00 1015.1
20260906001839 0 0.0 0.0 0.00 0.00 0.00 1014.9
20260906001338 0 0.0 0.0 0.00 0.00 0.00 1015.0
20260905235336 0 0.0 0.0 0.00 0.00 0.00 1014.9
20260905234823 0 0.0 0.0 0.00 0.00 0.00 1015.2
20260905234324 0 0.0 0.0 0.00 0.00 0.00 1015.1
20260905233820 0 0.0 0.0 0.00 0.00 0.00 1015.2
20260905233320 0 0.0 0.0 0.00 0.00 0.00 1015.0
20260905232820 0 0.0 0.0 0.00 0.00 0.00 1015.1
20260905232307 0 0.0 0.0 0.00 0.00 0.00 1014.9
20260905231809 0 0.0 0.0 0.00 0.00 0.00 1014.9
20260905231308 0 0.0 0.0 0.00 0.00 0.00 1014.6
20260905230808 0 0.0 0.0 0.00 0.00 0.00 1014.6
20260905225755 0 0.0 0.0 0.00 0.00 0.00 1014.5
20260905225234 0 0.0 0.0 0.00 0.00 0.00 1014.8
20260905224735 95 106 4.0 4.0 0.00 0.00 0.00 26 1014.5
20260905224227 95 106 4.0 4.0 0.00 0.00 0.00 26 1014.5
20260905223727 95 106 4.0 4.0 0.00 0.00 0.00 26 1014.6
20260905223225 95 106 4.0 4.0 0.00 0.00 0.00 26 1014.4
20260905222224 0 0.0 0.0 0.00 0.00 0.00 1014.5
20260905221708 0 0.0 0.0 0.00 0.00 0.00 1014.6
20260905221208 0 0.0 0.0 0.00 0.00 0.00 1015.0
20260905220633 0 0.0 0.0 0.00 0.00 0.00 1014.5
20260905220134 0 0.0 0.0 0.00 0.00 0.00 1014.9
20260905215134 0 0.0 0.0 0.00 0.00 0.00 1014.9
20260905214635 0 0.0 0.0 0.00 0.00 0.00 1015.1
20260905214133 0 0.0 0.0 0.00 0.00 0.00 1015.3
20260905213633 0 0.0 0.0 0.00 0.00 0.00 1015.3
20260905213132 0 0.0 0.0 0.00 0.00 0.00 1015.4
20260905212631 0 0.0 0.0 0.00 0.00 0.00 1015.3
20260905212131 94 51 2.0 5.0 0.00 0.00 0.00 26 1015.3